Wind_Speed
11 11 12 10 12 13 14 15 15 16 17 19 21 20 20 19 19 19 17 17 17 17 18 17 16 17 24 24 22 20 18 16 14 11 9 7 6 6 7 6 4 4 5 7 8 9 9
13 13 13 15 16 15 17 18 19 18 18 20 23 23 24 21 20 19 18 18 17 18 19 18 16 17 27 26 25 22 21 19 17 14 13 11 10 9 9 9 9 10 9 9 9 10 11
11 14 16 17 17 20 20 21 21 22 23 22 22 24 25 25 23 21 21 20 18 19 20 18 17 17 25 27 27 25 23 22 20 19 17 15 14 13 12 13 14 14 13 13 14 13 12
9 11 13 17 20 21 22 24 24 24 25 26 25 25 26 25 26 24 24 23 21 21 21 20 19 20 20 28 29 28 27 25 23 22 20 19 18 18 18 18 18 18 18 18 18 18 17
14 13 12 13 15 20 25 26 28 27 26 26 29 29 28 27 27 26 26 26 24 24 24 24 25 25 24 27 29 31 30 29 29 27 25 24 23 22 22 22 23 23 23 23 23 21 21
16 16 16 18 17 17 19 24 29 31 30 30 29 33 31 31 29 28 28 29 26 26 27 30 33 31 29 28 30 33 33 34 33 32 31 30 29 28 27 29 28 27 27 27 26 24 24
17 18 20 21 20 21 22 22 24 28 31 32 33 32 35 32 32 30 30 31 31 29 29 32 34 30 30 31 32 34 37 38 37 36 35 35 33 32 34 33 32 31 28 26 27 25 25
19 20 18 18 23 23 23 24 24 25 29 31 32 32 35 37 34 34 33 33 34 35 34 34 32 30 32 33 34 36 39 40 39 39 39 39 37 38 36 34 31 29 27 26 26 26 24
24 24 25 28 26 25 25 26 26 27 27 28 32 32 31 35 38 37 37 36 37 41 39 31 32 32 33 35 36 38 40 40 39 40 41 39 36 34 33 32 30 29 28 26 23 24 24
30 32 34 32 31 31 31 29 30 30 29 29 30 31 32 33 33 36 35 37 34 37 39 30 31 32 31 32 35 35 37 39 40 40 41 40 37 35 34 33 30 28 26 25 24 24 24
34 35 35 35 38 37 36 35 33 34 34 33 32 32 31 31 36 32 33 36 36 36 41 28 24 26 28 29 31 31 31 32 33 34 35 33 33 33 31 29 28 26 26 26 25 25 25
38 37 42 37 36 41 43 43 42 39 40 39 37 35 34 32 32 35 34 34 38 40 38 29 24 22 24 27 28 28 27 26 25 26 28 28 29 29 28 28 29 27 27 28 27 28 30
39 39 38 42 46 45 46 47 47 47 45 44 42 41 39 38 35 37 37 36 40 42 31 31 28 28 28 27 27 28 29 28 28 26 26 28 28 29 30 29 29 28 28 30 34 32 33
44 43 44 43 46 47 47 50 50 51 49 49 48 47 45 44 41 39 41 41 45 36 33 34 32 33 32 29 30 31 31 31 30 30 30 32 30 31 30 31 33 33 31 31 37 37 37
48 50 50 49 49 50 50 53 55 55 54 53 51 50 50 49 45 47 46 50 45 36 35 38 34 36 36 36 35 33 35 34 34 33 33 35 36 33 34 35 36 34 33 33 37 40 44
54 55 55 55 55 55 55 55 58 59 59 59 57 55 53 54 57 52 54 51 47 39 39 39 41 39 38 38 40 38 37 36 34 34 36 38 39 36 37 38 38 37 37 37 37 43 49
57 58 59 61 63 64 65 66 66 66 66 66 64 59 57 57 60 60 60 56 54 45 43 45 45 45 44 42 43 43 44 41 38 38 38 38 40 41 42 40 40 41 42 40 41 46 49
64 66 69 71 73 74 75 76 77 75 74 74 73 70 66 61 59 62 65 62 60 54 50 49 51 50 48 47 48 48 48 46 44 43 43 43 47 48 46 47 46 45 46 46 47 49 51
72 75 77 80 82 82 83 84 85 84 82 82 81 78 72 68 68 64 65 64 62 63 58 55 55 56 55 52 53 54 52 51 50 48 48 50 53 53 54 52 49 48 49 49 52 53 56
77 80 81 83 86 87 87 86 86 83 83 86 83 79 75 68 63 63 66 65 64 63 61 62 60 60 61 60 57 58 57 57 55 54 52 54 56 58 58 56 55 54 53 55 57 58 54
82 82 82 84 85 80 76 70 68 65 64 68 65 80 75 70 59 51 59 62 60 64 62 62 64 61 63 64 64 62 60 59 59 60 59 59 59 60 59 59 59 59 59 58 59 58 59
82 83 79 75 68 62 60 56 54 52 51 54 57 58 65 71 77 55 50 60 56 58 64 65 62 60 60 63 62 64 64 63 62 63 64 64 63 63 65 64 64 65 62 61 60 59 60
76 71 64 61 56 53 51 47 44 42 45 49 49 52 52 62 66 80 60 51 51 54 54 53 56 60 62 63 63 60 58 59 63 65 65 64 64 64 66 67 69 70 65 61 60 58 56
69 64 58 54 52 51 50 46 43 43 41 43 47 50 54 51 55 58 74 60 49 52 56 49 47 50 60 62 65 66 65 65 62 62 61 64 61 58 58 58 62 58 56 56 57 54 52
61 59 57 54 52 52 51 48 46 44 42 42 46 48 51 53 54 56 58 62 63 50 50 48 47 46 49 46 51 56 58 59 59 63 61 58 56 57 57 54 51 51 50 51 52 52 54
55 56 57 56 55 54 53 51 47 45 44 43 45 46 46 48 47 47 55 52 64 72 53 47 43 43 45 41 44 47 49 50 53 51 47 47 45 47 49 50 51 50 49 49 52 55 54
52 52 53 53 51 47 43 42 44 45 45 43 42 42 44 44 40 38 45 51 52 63 66 54 46 43 44 45 48 49 45 43 45 43 42 41 43 45 46 48 49 48 48 51 54 55 58
45 43 40 40 41 40 39 40 41 44 44 43 38 39 39 39 37 36 40 42 46 51 57 54 49 44 47 47 47 47 45 42 41 42 43 44 44 45 48 51 51 51 53 56 58 60 61
35 34 35 32 29 29 33 38 39 39 42 41 36 36 38 36 33 37 40 36 39 43 45 46 46 43 45 46 47 44 43 44 46 48 47 47 48 50 52 52 53 56 59 59 60 62 62
Wind_Direction
267 268 263 246 234 250 253 256 265 278 288 295 298 297 296 289 283 279 272 268 268 270 270 277 285 273 219 213 213 216 221 220 221 225 232 240 251 269 285 298 297 281 275 278 284 284 280
271 266 262 263 263 253 253 260 266 269 277 287 292 295 294 292 285 280 275 270 269 269 272 273 282 274 228 218 216 215 223 225 224 225 230 235 244 254 268 282 289 293 296 294 284 277 274
288 275 269 265 260 265 262 259 261 266 270 271 278 287 292 294 288 283 278 274 271 273 271 270 269 273 239 226 222 221 224 227 231 232 233 239 248 257 264 271 275 278 281 285 287 286 279
286 293 283 273 272 268 269 267 265 264 269 274 275 278 284 289 289 282 278 276 275 273 269 269 269 269 259 239 230 228 229 232 234 238 241 245 251 257 262 266 270 275 277 278 279 280 278
276 279 284 286 284 283 276 274 274 272 270 272 276 276 279 283 286 281 274 273 273 271 270 271 274 269 266 249 241 238 235 237 240 244 245 249 255 261 263 267 269 271 272 272 272 271 268
246 258 270 278 278 279 287 289 278 274 272 273 274 278 278 281 281 279 275 272 272 267 265 273 275 272 261 256 246 243 244 244 244 246 250 254 258 262 265 265 268 272 273 272 272 272 269
252 252 258 263 270 278 279 278 285 290 280 276 273 273 278 277 279 278 277 273 270 267 264 269 271 267 260 253 249 247 246 248 250 252 255 257 260 263 263 267 271 270 269 270 269 266 265
262 258 259 262 256 260 271 275 273 276 285 289 283 278 278 275 276 279 276 273 271 271 269 269 266 261 258 255 250 249 249 252 255 257 258 260 260 261 265 266 265 265 263 261 261 264 267
256 254 260 261 268 253 257 259 266 271 273 277 286 290 287 280 275 273 275 275 277 278 275 264 264 263 259 255 253 251 251 254 256 256 256 257 257 258 258 260 260 258 257 256 258 263 266
267 273 267 259 263 266 266 263 264 265 267 273 274 280 288 291 283 276 275 276 276 279 277 269 261 262 263 257 253 253 252 252 253 254 254 255 256 255 255 256 254 252 253 254 257 258 264
264 268 269 270 273 268 266 267 262 265 264 263 266 271 275 283 289 284 277 276 274 274 276 275 268 262 258 256 252 250 251 251 251 251 249 249 248 248 248 247 248 248 250 252 255 262 264
261 261 264 260 264 267 272 272 268 265 264 263 263 264 268 272 280 285 284 279 276 271 270 272 272 265 260 255 253 246 245 247 247 245 243 242 241 242 243 244 245 245 249 255 260 263 269
272 267 262 261 261 265 268 268 269 268 266 263 262 262 264 265 270 277 278 277 273 269 275 267 268 269 258 257 253 247 246 244 245 243 244 243 242 242 243 244 246 248 251 258 261 267 277
269 269 268 267 262 261 262 265 269 271 270 267 264 264 263 266 267 266 270 271 271 282 275 270 263 264 261 256 255 253 250 249 250 248 245 246 245 246 246 247 247 247 251 260 272 277 277
272 269 269 266 264 261 261 260 262 263 267 265 263 261 265 263 264 265 264 266 274 275 275 273 263 260 258 257 258 256 257 257 256 254 254 254 251 248 250 250 250 252 257 264 272 278 279
274 272 271 269 267 267 264 262 261 261 261 264 262 261 260 263 259 262 264 264 268 270 271 269 268 259 256 255 257 258 258 255 258 257 260 258 259 253 252 253 255 259 258 266 276 279 279
274 274 273 272 272 270 269 267 263 261 260 261 261 256 256 261 259 259 259 261 265 265 260 262 264 263 261 257 252 253 255 256 258 257 259 263 262 258 256 257 259 256 260 268 275 276 279
276 275 274 274 273 272 270 270 269 265 262 262 260 258 250 253 253 250 258 260 262 260 259 256 258 259 258 259 258 254 252 253 253 255 257 259 263 264 264 261 259 259 262 267 274 277 273
279 279 277 277 276 274 272 271 268 264 260 259 260 257 253 256 258 254 251 253 261 260 256 256 256 255 258 255 256 258 259 257 256 255 256 257 260 265 264 263 263 264 264 268 272 273 272
277 278 278 277 275 274 273 271 270 267 262 257 258 257 254 248 255 258 254 252 253 256 257 255 253 256 253 256 256 257 258 261 262 263 262 262 262 263 266 268 267 265 265 266 269 270 275
282 281 280 279 276 275 274 271 270 267 264 260 258 256 256 253 252 250 253 254 250 254 256 257 254 254 257 255 256 257 259 260 262 263 263 263 264 264 265 266 267 268 269 269 269 272 274
283 283 280 278 276 274 270 267 266 265 262 259 256 256 252 247 247 256 253 253 248 250 254 254 249 253 255 260 259 257 258 259 261 263 264 264 265 266 266 266 266 265 267 269 272 275 276
282 279 277 274 271 269 269 267 267 265 258 256 251 250 249 246 242 245 248 255 251 247 249 251 250 251 255 256 256 255 255 257 260 263 263 265 268 268 267 267 266 264 266 269 270 273 279
278 275 272 269 269 266 265 263 263 262 260 255 251 250 246 246 245 245 249 248 258 253 249 247 249 251 252 252 253 256 257 256 254 257 260 263 265 267 268 268 267 270 270 270 273 277 278
274 271 269 266 265 264 263 261 259 258 254 249 251 254 250 247 243 244 250 257 253 260 252 249 250 252 252 254 253 256 259 258 258 256 258 261 261 264 266 268 269 271 275 275 275 276 281
272 270 267 265 264 264 262 259 254 249 247 247 251 257 260 255 249 249 246 245 244 254 259 251 252 253 257 261 258 259 261 266 267 265 258 258 259 261 265 268 272 272 274 274 275 279 283
271 268 266 266 266 262 256 250 246 240 242 246 253 257 261 261 258 256 248 238 240 251 257 261 257 257 258 264 264 264 264 264 263 264 263 266 267 269 272 274 273 275 276 278 280 283 286
269 266 263 260 259 259 252 244 240 237 239 245 251 258 260 262 261 257 252 250 245 244 246 254 258 257 259 260 263 266 266 265 267 268 267 270 274 274 273 274 276 276 277 279 281 284 285
261 260 263 262 255 253 245 236 234 236 238 243 248 255 259 260 261 259 255 255 254 253 249 248 255 256 261 264 262 264 266 268 272 274 272 271 274 273 272 273 275 277 279 280 281 283 284
Height
5836 5835 5835 5834 5833 5836 5836 5836 5837 5838 5838 5839 5838 5837 5836 5834 5833 5833 5832 5831 5830 5829 5829 5827 5827 5826 5825 5827 5829 5830 5831 5831 5831 5832 5832 5833 5833 5833 5833 5832 5833 5832 5831 5830 5829 5829 5828
5833 5833 5833 5834 5833 5832 5833 5834 5834 5833 5834 5835 5836 5835 5835 5833 5832 5830 5829 5828 5827 5826 5825 5824 5824 5823 5823 5824 5825 5826 5828 5829 5829 5830 5830 5831 5831 5832 5831 5831 5831 5830 5830 5829 5828 5827 5827
5830 5831 5831 5830 5830 5831 5831 5830 5830 5831 5831 5830 5830 5830 5831 5830 5829 5827 5826 5825 5824 5823 5822 5821 5821 5821 5820 5821 5822 5823 5824 5825 5826 5827 5827 5828 5828 5829 5829 5829 5829 5828 5828 5826 5826 5825 5825
5828 5829 5828 5827 5827 5827 5826 5827 5826 5826 5826 5827 5825 5825 5825 5825 5825 5824 5824 5822 5821 5820 5819 5818 5818 5818 5817 5817 5818 5819 5820 5822 5822 5823 5824 5824 5825 5826 5826 5826 5826 5825 5825 5824 5823 5822 5821
5824 5823 5824 5823 5823 5823 5823 5822 5822 5821 5820 5820 5821 5820 5819 5819 5819 5820 5819 5818 5817 5816 5815 5815 5815 5814 5814 5813 5814 5814 5816 5817 5817 5818 5820 5820 5821 5822 5822 5821 5821 5820 5820 5819 5819 5818 5817
5817 5818 5818 5818 5818 5818 5818 5818 5817 5816 5815 5814 5814 5815 5814 5814 5813 5813 5813 5812 5812 5811 5810 5810 5809 5810 5809 5809 5809 5809 5810 5811 5812 5813 5815 5816 5816 5817 5817 5816 5815 5815 5814 5813 5812 5812 5811
5813 5812 5812 5813 5812 5812 5812 5812 5812 5812 5810 5809 5807 5806 5808 5807 5807 5805 5805 5805 5807 5806 5804 5804 5803 5802 5802 5802 5802 5803 5804 5804 5806 5807 5808 5809 5810 5811 5809 5809 5809 5808 5807 5806 5805 5804 5804
5808 5808 5808 5806 5805 5805 5805 5805 5805 5805 5805 5805 5803 5800 5799 5800 5799 5799 5798 5797 5797 5797 5796 5795 5795 5795 5795 5795 5796 5796 5796 5798 5799 5800 5800 5802 5803 5801 5802 5802 5802 5801 5801 5800 5798 5798 5798
5801 5800 5800 5800 5800 5799 5798 5797 5797 5796 5797 5797 5797 5796 5793 5792 5791 5791 5791 5791 5789 5787 5785 5789 5787 5787 5787 5787 5787 5789 5789 5790 5791 5792 5792 5792 5794 5794 5794 5794 5794 5795 5794 5793 5794 5793 5792
5796 5796 5795 5792 5792 5792 5792 5791 5790 5789 5788 5788 5789 5789 5788 5788 5785 5783 5783 5782 5780 5779 5776 5781 5780 5779 5780 5779 5779 5780 5780 5782 5782 5783 5783 5783 5786 5786 5787 5787 5788 5788 5788 5787 5787 5787 5786
5790 5788 5786 5787 5786 5785 5784 5784 5783 5782 5781 5780 5780 5780 5780 5780 5780 5776 5776 5775 5773 5772 5767 5774 5774 5773 5772 5773 5774 5773 5773 5773 5774 5774 5775 5776 5777 5778 5779 5780 5780 5782 5781 5780 5779 5779 5779
5781 5780 5779 5778 5777 5776 5776 5776 5775 5773 5773 5772 5771 5771 5771 5770 5771 5772 5768 5767 5767 5765 5761 5768 5769 5767 5767 5766 5767 5767 5767 5768 5767 5767 5768 5769 5770 5771 5772 5773 5773 5775 5774 5773 5771 5771 5769
5768 5769 5768 5767 5768 5767 5766 5765 5764 5763 5763 5763 5762 5762 5762 5762 5761 5762 5762 5760 5757 5754 5763 5761 5762 5762 5761 5762 5761 5761 5762 5762 5762 5763 5763 5763 5764 5765 5765 5766 5767 5767 5767 5764 5762 5762 5761
5753 5753 5754 5754 5754 5756 5755 5754 5753 5754 5752 5751 5753 5754 5753 5754 5752 5750 5752 5751 5746 5753 5756 5755 5754 5754 5755 5755 5756 5756 5756 5756 5757 5756 5756 5756 5759 5759 5760 5760 5759 5758 5758 5758 5752 5753 5753
5742 5740 5738 5738 5739 5740 5740 5741 5740 5739 5740 5739 5741 5742 5745 5744 5742 5742 5740 5735 5741 5747 5748 5748 5748 5745 5747 5748 5748 5748 5748 5750 5750 5751 5750 5749 5750 5753 5752 5752 5752 5752 5751 5751 5746 5744 5740
5726 5726 5726 5725 5725 5725 5725 5725 5726 5726 5726 5726 5725 5729 5731 5733 5730 5729 5728 5726 5730 5738 5739 5739 5738 5737 5737 5739 5739 5740 5740 5742 5743 5744 5743 5742 5741 5744 5743 5743 5744 5743 5743 5741 5740 5735 5730
5713 5713 5711 5710 5710 5710 5710 5710 5708 5708 5708 5710 5712 5712 5715 5718 5718 5716 5714 5714 5720 5726 5726 5727 5727 5727 5728 5729 5729 5729 5730 5734 5735 5735 5735 5734 5734 5734 5733 5735 5735 5733 5731 5732 5730 5726 5723
5697 5696 5695 5694 5692 5690 5689 5690 5691 5691 5691 5691 5691 5694 5699 5701 5703 5701 5701 5704 5708 5713 5715 5713 5714 5717 5717 5719 5719 5719 5720 5721 5723 5724 5725 5724 5721 5721 5724 5723 5723 5722 5722 5721 5718 5717 5713
5678 5677 5675 5673 5671 5669 5668 5668 5668 5669 5669 5670 5669 5674 5679 5682 5682 5685 5687 5688 5691 5696 5700 5700 5700 5702 5705 5705 5706 5709 5710 5711 5710 5712 5712 5712 5710 5710 5708 5710 5712 5712 5712 5710 5707 5704 5699
5657 5654 5652 5650 5647 5644 5642 5641 5640 5642 5645 5646 5646 5651 5658 5662 5664 5667 5670 5671 5676 5680 5682 5682 5685 5686 5689 5690 5693 5693 5697 5698 5700 5699 5699 5697 5697 5697 5697 5697 5698 5698 5699 5696 5693 5689 5691
5637 5632 5629 5625 5622 5620 5618 5617 5617 5618 5617 5620 5624 5630 5639 5645 5649 5649 5652 5655 5658 5661 5664 5667 5669 5673 5674 5673 5677 5679 5680 5683 5684 5685 5685 5683 5683 5683 5684 5683 5682 5682 5682 5682 5679 5679 5674
5612 5610 5605 5602 5600 5599 5599 5597 5599 5600 5599 5601 5605 5610 5618 5622 5633 5634 5633 5639 5641 5644 5646 5651 5652 5656 5657 5658 5661 5663 5665 5666 5666 5668 5668 5668 5667 5668 5668 5667 5666 5667 5667 5666 5665 5663 5659
5589 5587 5584 5584 5583 5583 5584 5584 5584 5584 5585 5586 5591 5594 5598 5603 5610 5616 5621 5625 5627 5624 5629 5632 5635 5636 5639 5643 5644 5645 5645 5647 5650 5652 5650 5651 5651 5652 5650 5651 5649 5648 5655 5653 5650 5647 5645
5569 5568 5569 5568 5569 5570 5571 5571 5571 5572 5572 5575 5578 5580 5583 5587 5593 5599 5603 5610 5612 5612 5614 5618 5620 5619 5625 5626 5626 5627 5628 5629 5630 5633 5634 5634 5635 5632 5633 5633 5629 5638 5637 5635 5633 5631 5628
5550 5551 5552 5553 5554 5555 5556 5557 5559 5560 5561 5564 5567 5568 5570 5573 5578 5586 5587 5591 5600 5601 5603 5603 5607 5607 5610 5610 5609 5610 5613 5613 5616 5616 5618 5619 5619 5617 5615 5617 5619 5621 5622 5620 5618 5618 5614
5534 5535 5535 5537 5538 5540 5541 5543 5546 5547 5550 5554 5557 5558 5559 5561 5569 5570 5573 5579 5584 5587 5590 5591 5593 5594 5596 5597 5596 5596 5597 5600 5601 5603 5604 5604 5604 5603 5602 5602 5603 5606 5605 5604 5600 5603 5600
5519 5520 5520 5522 5523 5524 5526 5529 5532 5536 5539 5545 5548 5549 5549 5551 5556 5559 5561 5564 5568 5573 5576 5580 5580 5581 5581 5583 5583 5585 5585 5587 5588 5590 5594 5593 5592 5591 5589 5587 5589 5592 5588 5586 5585 5589 5583
5506 5507 5507 5509 5510 5512 5514 5517 5521 5526 5530 5535 5539 5540 5541 5542 5546 5550 5550 5551 5555 5557 5561 5567 5568 5568 5568 5571 5572 5573 5572 5575 5576 5577 5578 5580 5579 5578 5575 5574 5576 5577 5574 5573 5570 5568 5567
5496 5497 5499 5499 5500 5501 5503 5507 5511 5517 5521 5526 5531 5532 5533 5534 5539 5540 5542 5542 5542 5543 5548 5551 5555 5555 5554 5556 5559 5558 5561 5562 5563 5565 5566 5567 5566 5565 5565 5562 5560 5559 5557 5556 5553 5552 5550